Terminal Aerodrome Forecast
Issued by NWS Portland, ME

Home | Current Version | Previous Version | Text Only | Print | Product List | Glossary On
Versions: 1 2 3 4 5 6 7 8 9 10 11 12 13 14 15 16 17 18 19 20 21 22 23 24 25 26 27 28 29
000
FTUS41 KGYX 230410 AAA
TAFPWM
TAF AMD
KPWM 230410Z 2304/2324 03016G30KT 5SM RA BKN007 OVC015
      WS020/04055KT
     FM230800 03017G30KT 3SM -RADZ BR OVC004 WS020/04060KT
     FM231500 03016G28KT 2SM RA BR OVC005=

USA.gov is the U.S. government's official web portal to all federal, state and local government web resources and services.